Cape Byron Observation History
Time Wind Speed Temp Pressure Rel. Hum Rain
08/04:00am SW 11-14 kts 13.2°c 1013.7 hPa n/a 21.8mm
08/03:30am SW 10-14 kts 13.3°c 1013.9 hPa n/a 21.8mm
08/03:00am SW 9-11 kts 13.3°c 1014.2 hPa n/a 21.8mm
08/02:30am SW 10-12 kts 13.4°c 1014.3 hPa n/a 21.8mm
08/02:00am SW 7-9 kts 13.6°c 1014.2 hPa n/a 21.8mm
08/01:30am WSW 8-10 kts 14.1°c 1014.8 hPa n/a 21.8mm
08/01:00am WSW 6-8 kts 14.6°c 1015.2 hPa n/a 21.8mm
08/12:30am SW 7-8 kts 14.2°c 1015.4 hPa n/a 21.6mm
08/12:00am SW 4-6 kts 14.8°c 1015.7 hPa n/a 21.6mm
Time Wind Speed Temp Pressure Rel. Hum Rain
07/11:30pm WSW 6-7 kts 14.9°c 1015.9 hPa n/a 21.4mm
07/11:00pm W 8-10 kts 14.2°c 1016.0 hPa n/a 21.4mm
07/10:30pm W 10-14 kts 13.9°c 1016.2 hPa n/a 21.4mm
07/10:00pm NW 6-8 kts 14.1°c 1016.3 hPa n/a 21.4mm
07/09:30pm W 5-9 kts 13.9°c 1016.7 hPa n/a 21.0mm
07/09:00pm NNE 2-6 kts 14.6°c 1017.2 hPa n/a 21.0mm
07/08:30pm E 5-7 kts 14.3°c 1017.0 hPa n/a 21.0mm
07/08:00pm SE 5-6 kts 14.1°c 1016.9 hPa n/a 21.0mm
07/07:30pm SSE 6-7 kts 13.7°c 1016.9 hPa n/a 21.0mm
07/07:00pm WSW 11-13 kts 13.4°c 1018.1 hPa n/a 20.8mm
07/06:30pm WSW 12-16 kts 13.6°c 1017.9 hPa n/a 20.4mm
07/06:00pm WSW 6-8 kts 14.2°c 1017.4 hPa n/a 20.4mm
07/05:30pm W 7-9 kts 14.1°c 1017.8 hPa n/a 19.8mm
07/05:00pm W 12-17 kts 13.7°c 1017.6 hPa n/a 16.6mm
07/04:30pm WSW 8-11 kts 14.8°c 1016.4 hPa 99% 9.8mm
07/04:00pm SSW 5-6 kts 15.3°c 1015.3 hPa 100% 8.4mm
07/03:30pm SW 6-9 kts 15.7°c 1014.7 hPa 100% 8.4mm
07/03:00pm WSW 7-12 kts 15.7°c 1015.0 hPa 100% 8.4mm
07/02:30pm WNW 5-11 kts 16.5°c 1014.2 hPa 100% 8.4mm
07/02:00pm WNW 7-14 kts 16.6°c 1015.2 hPa 100% 8.4mm
07/01:37pm NNE 15-22 kts 19.4°c 1014.9 hPa 83% 8.4mm
07/01:30pm NE 21-27 kts 19.3°c 1014.9 hPa 99% 8.4mm
07/01:00pm ENE 13-25 kts 17.6°c 1014.7 hPa n/a 8.4mm
07/12:30pm ENE 14-28 kts 17.8°c 1014.9 hPa n/a 8.4mm
07/12:00pm NNE 8-17 kts 17.4°c 1016.7 hPa 100% 6.2mm
07/11:30am E 10-15 kts 17.7°c 1017.6 hPa 100% 0.6mm
07/11:00am E 11-20 kts 17.0°c 1018.6 hPa 94% 0.0mm
07/10:42am ENE 15-26 kts 17.8°c 1017.9 hPa 88% 0.0mm
07/10:30am ENE 14-24 kts 17.7°c 1018.3 hPa 88% 0.0mm
07/10:00am ENE 16-24 kts 17.2°c 1018.4 hPa 94% 0.0mm
07/09:30am ENE 14-19 kts 18.1°c 1019.2 hPa 75% 0.0mm
07/09:06am ENE 17-27 kts 18.1°c 1018.7 hPa 75% 0.0mm
07/09:00am ENE 20-27 kts 18.1°c 1018.8 hPa 75% 0.0mm
07/08:30am ENE 21-30 kts 17.8°c 1018.9 hPa 75% 0.0mm
07/08:27am ENE 20-30 kts 17.8°c 1018.8 hPa 75% 0.0mm
07/08:00am ENE 20-27 kts 17.7°c 1019.2 hPa 74% 0.0mm
07/07:30am E 20-26 kts 17.7°c 1019.3 hPa 73% 0.0mm
07/07:00am E 18-24 kts 17.7°c 1019.4 hPa 73% 0.0mm
07/06:30am E 18-23 kts 17.6°c 1019.3 hPa 72% 0.0mm
07/06:00am E 18-23 kts 17.6°c 1019.1 hPa 71% 0.0mm
07/05:30am E 16-23 kts 17.6°c 1019.2 hPa 70% 0.0mm
07/05:00am E 17-21 kts 17.6°c 1018.8 hPa 69% 0.0mm
07/04:30am E 16-21 kts 17.6°c 1019.0 hPa 68% 0.0mm
07/04:00am ESE 18-21 kts 17.7°c 1018.9 hPa 68% 0.0mm
07/03:30am ESE 17-21 kts 17.8°c 1018.8 hPa 67% 0.0mm
07/03:00am ESE 14-17 kts 17.8°c 1019.1 hPa 66% 0.0mm
07/02:30am ESE 13-17 kts 17.9°c 1019.3 hPa 67% 0.0mm
07/02:00am E 13-18 kts 17.9°c 1019.3 hPa 68% 0.0mm
07/01:30am E 12-17 kts 17.9°c 1019.6 hPa 68% 0.0mm
07/01:00am E 14-17 kts 18.0°c 1019.8 hPa 66% 0.0mm
07/12:30am E 12-15 kts 18.0°c 1019.8 hPa 67% 0.0mm
07/12:00am E 11-15 kts 17.9°c 1019.9 hPa 68% 0.0mm
Time Wind Speed Temp Pressure Rel. Hum Rain
06/11:30pm E 12-15 kts 18.1°c 1020.0 hPa 68% 0.0mm
06/11:00pm E 11-14 kts 17.9°c 1020.1 hPa 69% 0.0mm
06/10:30pm E 12-16 kts 17.7°c 1019.8 hPa 67% 0.0mm
06/10:00pm E 13-16 kts 17.6°c 1019.7 hPa 69% 0.0mm
06/09:30pm E 12-15 kts 17.9°c 1019.8 hPa 70% 0.0mm
06/09:00pm E 10-13 kts 17.4°c 1019.5 hPa 69% 0.0mm
06/08:30pm E 9-11 kts 17.2°c 1019.5 hPa 66% 0.0mm
06/08:00pm E 9-12 kts 17.3°c 1019.4 hPa 65% 0.0mm
06/07:30pm E 9-12 kts 17.3°c 1019.0 hPa 67% 0.0mm
06/07:00pm ENE 9-11 kts 17.4°c 1018.7 hPa 66% 0.0mm
06/06:30pm ENE 7-10 kts 17.4°c 1018.5 hPa 66% 0.0mm
06/06:00pm E 10-13 kts 17.2°c 1017.9 hPa 68% 0.0mm
06/05:30pm E 10-12 kts 17.3°c 1017.6 hPa 66% 0.0mm
06/05:00pm E 10-13 kts 17.8°c 1017.4 hPa 61% 0.0mm
06/04:30pm ESE 10-12 kts 18.1°c 1017.1 hPa 61% 0.0mm
06/04:00pm SE 8-11 kts 18.4°c 1017.0 hPa 58% 0.0mm
06/03:30pm SSE 9-13 kts 18.2°c 1016.8 hPa 58% 0.0mm
06/03:00pm SSE 11-14 kts 18.1°c 1016.7 hPa 56% 0.0mm
06/02:30pm SSE 12-16 kts 17.9°c 1016.5 hPa 64% 0.0mm
06/02:00pm SSE 12-16 kts 17.7°c 1016.7 hPa 62% 0.0mm
06/01:30pm S 15-17 kts 17.5°c 1016.7 hPa 60% 0.0mm
06/01:00pm S 16-18 kts 17.4°c 1016.7 hPa 61% 0.0mm
06/12:30pm S 16-18 kts 17.3°c 1017.1 hPa 39% 0.0mm
06/12:00pm S 16-18 kts 17.0°c 1017.7 hPa 45% 0.0mm
06/11:30am SSE 16-18 kts 16.6°c 1017.9 hPa 52% 0.0mm
06/11:00am S 15-18 kts 16.6°c 1018.3 hPa 47% 0.0mm
06/10:30am S 15-17 kts 16.2°c 1018.7 hPa 52% 0.0mm
06/10:00am S 12-15 kts 15.9°c 1018.7 hPa 58% 0.0mm
06/09:30am S 13-15 kts 15.5°c 1018.8 hPa 57% 0.0mm
06/09:00am S 8-9 kts 15.9°c 1018.5 hPa 54% 0.0mm
06/08:30am SSW 5-7 kts 15.5°c 1018.3 hPa 46% 0.0mm
06/08:00am SSW 7-9 kts 14.0°c 1018.0 hPa 61% 0.0mm
06/07:30am SSW 5-6 kts 14.4°c 1017.8 hPa 60% 0.0mm
06/07:00am ENE 2-4 kts 15.9°c 1017.4 hPa 46% 0.0mm
06/06:30am WNW 3-5 kts 15.7°c 1017.0 hPa 43% 0.0mm
06/06:00am W 4-5 kts 15.3°c 1016.1 hPa 47% 0.0mm
06/05:30am NW 6-8 kts 15.1°c 1015.6 hPa 50% 0.0mm
06/05:00am WNW 8-11 kts 14.4°c 1015.4 hPa 53% 0.0mm
06/04:30am WSW 14-17 kts 15.6°c 1015.1 hPa 41% 0.0mm
06/04:00am W 13-15 kts 15.2°c 1015.0 hPa 44% 0.0mm
06/03:30am WSW 13-15 kts 15.5°c 1015.1 hPa 43% 0.0mm
06/03:00am WSW 13-17 kts 15.9°c 1015.2 hPa 42% 0.0mm
06/02:30am WSW 10-13 kts 16.7°c 1015.2 hPa 48% 0.0mm
06/02:00am SW 12-15 kts 17.0°c 1015.2 hPa 52% 0.0mm
06/01:30am SW 12-15 kts 17.0°c 1015.3 hPa 49% 0.0mm
06/01:00am WSW 14-16 kts 17.2°c 1015.4 hPa 43% 0.0mm
06/12:30am WSW 14-17 kts 17.7°c 1015.5 hPa 35% 0.0mm
06/12:00am SW 15-19 kts 18.1°c 1015.6 hPa 34% 0.0mm